QPF
0.00 0.00 0.00 0.00 0.00 0.00 0.00 0.00 0.00 0.00 0.00 0.00 0.00 0.00 0.00 0.00 0.00 0.00 0.00 0.00 0.00 0.00 0.00 0.00 0.00 0.00 0.00 0.00 0.00 0.00 0.00 0.00 0.00 0.00 0.00 0.00 0.00 0.00 0.00 0.00 0.00 0.00 0.00
0.00 0.00 0.00 0.00 0.00 0.00 0.00 0.00 0.00 0.00 0.00 0.00 0.00 0.00 0.00 0.00 0.00 0.00 0.00 0.00 0.00 0.00 0.00 0.00 0.00 0.00 0.00 0.00 0.00 0.00 0.00 0.00 0.00 0.00 0.00 0.00 0.00 0.00 0.00 0.00 0.00 0.00 0.00
0.00 0.00 0.00 0.00 0.00 0.00 0.00 0.00 0.00 0.00 0.00 0.00 0.00 0.00 0.00 0.00 0.00 0.00 0.00 0.00 0.00 0.00 0.00 0.00 0.00 0.00 0.00 0.00 0.00 0.00 0.00 0.00 0.00 0.00 0.00 0.00 0.00 0.00 0.00 0.00 0.00 0.00 0.00
0.00 0.00 0.00 0.00 0.00 0.00 0.00 0.00 0.00 0.00 0.00 0.00 0.00 0.00 0.00 0.00 0.00 0.00 0.00 0.00 0.00 0.00 0.00 0.00 0.00 0.00 0.00 0.00 0.00 0.00 0.00 0.00 0.00 0.00 0.00 0.00 0.00 0.00 0.00 0.00 0.00 0.00 0.00
0.00 0.00 0.00 0.00 0.00 0.00 0.00 0.00 0.00 0.00 0.00 0.00 0.00 0.00 0.00 0.00 0.00 0.00 0.00 0.00 0.00 0.00 0.00 0.00 0.00 0.01 0.00 0.00 0.00 0.00 0.00 0.00 0.00 0.00 0.00 0.00 0.00 0.00 0.00 0.00 0.00 0.00 0.00
0.00 0.00 0.00 0.01 0.00 0.00 0.00 0.00 0.00 0.00 0.00 0.00 0.00 0.00 0.00 0.00 0.00 0.00 0.00 0.00 0.00 0.00 0.00 0.00 0.00 0.00 0.00 0.00 0.00 0.00 0.00 0.00 0.00 0.01 0.00 0.00 0.00 0.00 0.00 0.00 0.00 0.00 0.00
0.00 0.01 0.01 0.01 0.00 0.00 0.00 0.00 0.00 0.00 0.00 0.00 0.00 0.00 0.00 0.00 0.00 0.00 0.00 0.00 0.00 0.00 0.00 0.00 0.00 0.00 0.00 0.00 0.00 0.00 0.00 0.00 0.00 0.00 0.00 0.00 0.00 0.00 0.00 0.00 0.00 0.00 0.00
0.00 0.01 0.00 0.00 0.00 0.00 0.00 0.00 0.00 0.00 0.00 0.00 0.00 0.00 0.00 0.00 0.00 0.00 0.00 0.00 0.00 0.00 0.00 0.00 0.00 0.00 0.00 0.00 0.00 0.00 0.00 0.00 0.00 0.00 0.00 0.00 0.00 0.00 0.00 0.00 0.00 0.00 0.00
0.01 0.00 0.00 0.00 0.00 0.00 0.00 0.00 0.00 0.00 0.00 0.00 0.00 0.00 0.00 0.00 0.00 0.00 0.00 0.00 0.00 0.00 0.00 0.00 0.00 0.00 0.00 0.00 0.00 0.00 0.00 0.00 0.00 0.00 0.00 0.00 0.00 0.00 0.00 0.00 0.00 0.00 0.00
0.00 0.00 0.00 0.00 0.00 0.00 0.00 0.00 0.00 0.00 0.00 0.00 0.00 0.00 0.00 0.00 0.00 0.00 0.00 0.00 0.00 0.00 0.00 0.00 0.00 0.00 0.00 0.00 0.00 0.00 0.00 0.00 0.00 0.00 0.00 0.00 0.00 0.00 0.00 0.00 0.00 0.00 0.00
0.00 0.00 0.00 0.00 0.00 0.00 0.00 0.00 0.00 0.00 0.00 0.00 0.00 0.00 0.00 0.00 0.00 0.00 0.00 0.00 0.00 0.00 0.00 0.00 0.00 0.00 0.00 0.00 0.00 0.00 0.00 0.00 0.00 0.00 0.00 0.00 0.00 0.00 0.00 0.00 0.00 0.00 0.00
0.00 0.00 0.00 0.00 0.00 0.00 0.00 0.00 0.00 0.00 0.00 0.00 0.00 0.00 0.00 0.00 0.00 0.00 0.00 0.00 0.00 0.00 0.00 0.00 0.00 0.00 0.00 0.00 0.00 0.00 0.00 0.00 0.00 0.00 0.00 0.00 0.00 0.00 0.00 0.00 0.00 0.00 0.00
0.00 0.00 0.00 0.00 0.00 0.00 0.00 0.00 0.00 0.00 0.00 0.00 0.00 0.00 0.00 0.00 0.00 0.00 0.00 0.00 0.00 0.00 0.00 0.00 0.00 0.00 0.00 0.00 0.00 0.00 0.00 0.00 0.00 0.00 0.00 0.00 0.00 0.00 0.00 0.00 0.00 0.00 0.00
0.00 0.00 0.00 0.00 0.00 0.00 0.00 0.00 0.00 0.00 0.00 0.00 0.00 0.00 0.00 0.00 0.00 0.00 0.00 0.00 0.00 0.00 0.00 0.00 0.00 0.00 0.00 0.00 0.00 0.00 0.00 0.00 0.00 0.00 0.00 0.00 0.00 0.00 0.00 0.00 0.00 0.00 0.00
0.00 0.00 0.00 0.00 0.00 0.00 0.00 0.00 0.00 0.00 0.00 0.00 0.00 0.00 0.00 0.00 0.00 0.00 0.00 0.00 0.00 0.00 0.00 0.00 0.00 0.00 0.00 0.00 0.00 0.00 0.00 0.00 0.00 0.00 0.00 0.00 0.00 0.00 0.00 0.00 0.00 0.00 0.00
0.00 0.00 0.00 0.00 0.00 0.00 0.00 0.00 0.00 0.00 0.00 0.00 0.00 0.00 0.00 0.00 0.00 0.00 0.00 0.00 0.00 0.00 0.00 0.00 0.00 0.00 0.00 0.00 0.00 0.00 0.00 0.00 0.00 0.00 0.00 0.00 0.00 0.00 0.00 0.00 0.00 0.00 0.00
0.00 0.00 0.00 0.00 0.00 0.00 0.00 0.00 0.00 0.00 0.00 0.00 0.00 0.00 0.00 0.00 0.00 0.00 0.00 0.00 0.00 0.00 0.00 0.00 0.00 0.00 0.00 0.00 0.00 0.00 0.00 0.00 0.00 0.00 0.00 0.00 0.00 0.00 0.00 0.00 0.00 0.00 0.00
0.00 0.00 0.00 0.00 0.00 0.00 0.00 0.00 0.00 0.00 0.00 0.00 0.00 0.00 0.00 0.00 0.00 0.00 0.00 0.00 0.00 0.00 0.00 0.00 0.00 0.00 0.00 0.00 0.00 0.00 0.00 0.00 0.00 0.00 0.00 0.00 0.00 0.00 0.00 0.00 0.00 0.00 0.00
0.00 0.00 0.00 0.00 0.00 0.00 0.00 0.00 0.00 0.00 0.00 0.00 0.00 0.00 0.00 0.00 0.00 0.00 0.00 0.00 0.00 0.00 0.00 0.01 0.01 0.01 0.00 0.01 0.00 0.00 0.00 0.00 0.00 0.01 0.00 0.00 0.00 0.00 0.00 0.00 0.00 0.00 0.00
0.00 0.00 0.00 0.00 0.00 0.00 0.00 0.00 0.00 0.00 0.00 0.00 0.00 0.00 0.00 0.00 0.00 0.00 0.00 0.00 0.00 0.00 0.00 0.00 0.01 0.01 0.01 0.01 0.00 0.00 0.00 0.00 0.01 0.01 0.01 0.00 0.00 0.00 0.00 0.00 0.00 0.00 0.00
0.00 0.00 0.00 0.00 0.00 0.00 0.00 0.00 0.00 0.00 0.00 0.00 0.00 0.00 0.00 0.00 0.00 0.00 0.00 0.00 0.00 0.00 0.00 0.00 0.00 0.00 0.00 0.00 0.00 0.00 0.00 0.00 0.00 0.00 0.00 0.00 0.00 0.00 0.00 0.00 0.00 0.00 0.00
0.00 0.00 0.00 0.00 0.00 0.00 0.00 0.00 0.00 0.00 0.00 0.00 0.00 0.00 0.00 0.00 0.00 0.00 0.00 0.00 0.00 0.00 0.00 0.00 0.00 0.00 0.00 0.00 0.00 0.00 0.00 0.00 0.00 0.00 0.00 0.00 0.00 0.00 0.00 0.00 0.00 0.00 0.00
0.00 0.00 0.00 0.00 0.00 0.00 0.00 0.00 0.00 0.00 0.00 0.00 0.00 0.00 0.00 0.00 0.00 0.00 0.00 0.00 0.00 0.00 0.00 0.00 0.00 0.00 0.00 0.00 0.00 0.00 0.00 0.00 0.00 0.00 0.00 0.00 0.00 0.00 0.00 0.00 0.00 0.00 0.00
0.00 0.00 0.00 0.00 0.00 0.00 0.00 0.00 0.00 0.00 0.00 0.00 0.00 0.00 0.00 0.00 0.00 0.00 0.00 0.00 0.00 0.00 0.00 0.00 0.00 0.00 0.00 0.00 0.00 0.00 0.00 0.00 0.00 0.00 0.00 0.00 0.00 0.00 0.00 0.00 0.00 0.00 0.00
0.00 0.00 0.00 0.00 0.00 0.00 0.00 0.00 0.00 0.00 0.00 0.00 0.00 0.00 0.00 0.00 0.00 0.00 0.00 0.00 0.00 0.00 0.00 0.00 0.00 0.00 0.00 0.00 0.00 0.00 0.00 0.00 0.00 0.00 0.00 0.00 0.00 0.00 0.00 0.00 0.00 0.00 0.00
0.00 0.00 0.00 0.00 0.00 0.00 0.00 0.00 0.00 0.00 0.00 0.00 0.00 0.00 0.00 0.00 0.00 0.00 0.00 0.00 0.00 0.00 0.00 0.00 0.00 0.00 0.00 0.00 0.00 0.00 0.00 0.00 0.00 0.00 0.00 0.00 0.00 0.00 0.00 0.00 0.00 0.00 0.00
MSLP
1014.78 1014.33 1013.96 1013.49 1013.00 1012.63 1012.25 1012.12 1012.00 1011.68 1011.56 1011.11 1010.67 1010.25 1009.60 1009.16 1009.20 1009.03 1009.16 1009.05 1008.75 1008.78 1008.49 1008.05 1007.90 1007.56 1007.31 1006.95 1006.53 1006.40 1005.98 1005.71 1006.06 1006.68 1006.74 1007.15 1007.65 1007.79 1008.01 1008.59 1008.59 1009.40 1010.46
1014.78 1014.35 1013.89 1013.29 1012.74 1012.35 1012.01 1012.17 1012.11 1011.66 1011.45 1011.28 1010.93 1010.47 1010.03 1009.61 1009.35 1009.59 1009.68 1009.29 1009.04 1008.73 1008.43 1008.20 1008.30 1007.80 1007.51 1006.96 1006.77 1006.80 1006.61 1006.16 1005.92 1005.98 1006.47 1007.06 1007.56 1008.12 1008.38 1008.68 1008.96 1009.50 1009.47
1014.50 1014.15 1013.75 1013.20 1012.72 1012.31 1012.14 1012.08 1012.07 1011.71 1011.59 1011.44 1011.13 1010.79 1010.38 1010.29 1010.00 1010.38 1010.32 1009.97 1009.41 1009.33 1008.91 1009.03 1008.36 1007.98 1007.70 1007.45 1007.16 1006.81 1006.62 1006.31 1005.96 1006.01 1006.30 1006.91 1007.42 1008.28 1008.77 1008.92 1009.22 1009.70 1009.93
1014.23 1013.85 1013.44 1012.86 1012.37 1012.04 1012.14 1012.22 1012.29 1011.95 1011.84 1011.71 1011.33 1011.10 1010.74 1010.73 1010.70 1010.51 1010.42 1009.95 1009.49 1009.39 1009.21 1009.05 1008.64 1008.27 1007.94 1007.63 1007.43 1007.09 1006.88 1006.58 1006.37 1006.50 1006.69 1007.20 1007.66 1008.56 1008.79 1008.93 1009.27 1009.90 1010.19
1013.94 1013.55 1012.95 1012.26 1012.02 1012.20 1012.29 1012.35 1012.12 1012.28 1012.13 1012.15 1011.61 1011.34 1011.18 1011.06 1011.15 1010.82 1010.55 1010.33 1010.12 1009.69 1009.71 1009.48 1008.87 1008.33 1008.01 1007.88 1007.84 1007.48 1007.28 1007.25 1007.10 1006.91 1007.16 1007.68 1008.06 1008.70 1008.81 1008.72 1009.41 1010.21 1010.95
1013.80 1013.33 1012.66 1012.02 1012.34 1012.54 1012.54 1012.55 1012.54 1012.63 1012.46 1012.36 1011.35 1011.67 1011.56 1011.61 1011.51 1011.28 1011.04 1010.68 1010.40 1010.29 1010.11 1009.66 1009.19 1008.77 1008.58 1008.34 1008.33 1008.20 1007.94 1007.93 1007.82 1007.76 1007.91 1008.15 1008.90 1009.06 1009.09 1009.23 1009.81 1010.58 1011.50
1013.71 1013.23 1012.97 1012.81 1012.88 1013.05 1012.92 1012.93 1012.97 1013.05 1012.90 1012.56 1012.39 1012.22 1012.16 1012.15 1011.79 1011.38 1010.87 1010.61 1010.46 1010.28 1010.15 1009.87 1009.47 1009.49 1009.35 1008.92 1008.99 1008.81 1008.71 1008.65 1008.79 1008.70 1008.87 1009.15 1009.51 1009.58 1009.48 1009.70 1010.22 1010.71 1011.53
1013.61 1013.28 1013.34 1013.37 1013.46 1013.51 1013.40 1013.63 1013.49 1013.28 1013.11 1013.04 1012.90 1012.71 1012.58 1012.23 1011.82 1011.43 1011.10 1010.72 1010.49 1010.41 1010.29 1010.07 1009.95 1009.99 1009.85 1009.59 1009.53 1009.55 1009.74 1009.87 1009.68 1009.43 1009.44 1009.97 1010.16 1010.03 1009.98 1009.90 1010.54 1011.40 1012.19
1013.73 1013.80 1013.92 1014.00 1014.09 1014.22 1014.26 1014.12 1013.96 1013.72 1013.48 1013.56 1013.32 1013.15 1012.87 1012.49 1012.04 1011.57 1011.41 1011.32 1010.82 1010.66 1010.61 1010.52 1010.36 1010.12 1009.99 1010.10 1010.04 1010.22 1010.61 1010.66 1010.52 1010.32 1010.45 1010.52 1010.54 1010.30 1010.09 1010.20 1011.07 1011.57 1012.75
1014.40 1014.54 1014.65 1014.69 1014.71 1014.72 1014.69 1014.51 1014.27 1014.02 1013.85 1013.72 1013.41 1013.11 1012.79 1012.51 1012.11 1011.91 1011.63 1011.51 1011.21 1010.84 1010.47 1010.62 1010.68 1010.49 1010.45 1010.49 1010.50 1010.74 1010.80 1011.13 1011.26 1011.35 1011.37 1011.09 1010.94 1011.05 1011.01 1011.05 1011.19 1011.68 1012.45
1015.10 1015.19 1015.24 1015.20 1015.25 1015.27 1015.09 1014.80 1014.59 1014.22 1014.00 1013.79 1013.52 1013.16 1013.01 1012.89 1012.64 1012.27 1011.90 1011.63 1011.54 1011.34 1011.15 1011.06 1011.13 1010.98 1010.99 1010.86 1010.83 1010.86 1011.22 1011.54 1011.61 1011.61 1011.79 1011.93 1011.99 1012.06 1011.98 1011.89 1011.78 1012.01 1012.71
1015.81 1015.81 1015.85 1015.81 1015.70 1015.49 1015.22 1014.86 1014.67 1014.48 1014.28 1014.20 1013.94 1013.66 1013.39 1013.17 1012.90 1012.71 1012.36 1012.10 1011.88 1011.86 1011.96 1011.86 1011.84 1011.46 1011.56 1011.59 1011.63 1011.70 1011.79 1012.06 1012.28 1012.49 1012.71 1012.88 1012.96 1012.93 1012.97 1012.86 1012.88 1013.03 1013.11
1016.39 1016.44 1016.37 1016.16 1015.96 1015.68 1015.43 1015.20 1015.10 1014.97 1014.82 1014.73 1014.54 1014.38 1014.06 1013.79 1013.50 1013.23 1013.02 1012.79 1012.58 1012.51 1012.49 1012.45 1012.24 1012.21 1012.20 1012.36 1012.40 1012.40 1012.57 1012.76 1012.92 1013.07 1013.22 1013.35 1013.51 1013.60 1013.61 1013.68 1013.66 1013.66 1013.73
1017.04 1017.04 1016.92 1016.73 1016.57 1016.25 1015.94 1015.76 1015.59 1015.54 1015.43 1015.30 1015.19 1015.08 1014.59 1014.48 1014.20 1013.73 1013.45 1013.25 1013.04 1012.92 1012.93 1012.95 1012.96 1012.97 1013.02 1013.18 1013.30 1013.43 1013.48 1013.47 1013.48 1013.68 1013.80 1013.97 1014.09 1014.11 1014.11 1014.22 1014.15 1014.35 1014.49
1017.67 1017.62 1017.44 1017.23 1017.02 1016.86 1016.74 1016.58 1016.23 1016.05 1015.83 1015.52 1015.49 1015.40 1015.25 1014.94 1014.85 1014.67 1014.22 1013.93 1013.78 1013.72 1013.48 1013.52 1013.67 1013.78 1013.97 1014.21 1014.25 1014.16 1014.19 1014.18 1014.20 1014.31 1014.40 1014.59 1014.67 1014.71 1014.85 1014.93 1014.98 1015.17 1015.32
1018.26 1018.09 1017.94 1017.80 1017.74 1017.61 1017.40 1017.10 1016.48 1016.27 1015.87 1015.72 1015.26 1015.01 1015.24 1015.06 1015.04 1014.92 1014.71 1014.50 1014.35 1014.15 1014.15 1014.47 1014.74 1014.80 1014.92 1015.00 1014.96 1014.94 1014.94 1014.89 1014.96 1015.03 1015.15 1015.25 1015.35 1015.47 1015.55 1015.67 1015.79 1015.95 1016.17
1018.79 1018.68 1018.55 1018.45 1018.45 1018.28 1018.00 1017.76 1017.42 1016.35 1016.11 1015.90 1015.71 1015.47 1015.50 1015.62 1015.65 1015.62 1015.25 1015.12 1015.07 1014.93 1015.11 1015.37 1015.45 1015.50 1015.47 1015.55 1015.57 1015.60 1015.61 1015.65 1015.68 1015.71 1015.73 1015.81 1015.88 1016.11 1016.27 1016.56 1016.70 1016.78 1017.12
1019.24 1019.08 1018.94 1018.82 1018.71 1018.48 1018.29 1018.11 1017.82 1017.78 1017.51 1017.33 1016.77 1016.38 1016.08 1016.18 1016.33 1016.29 1016.10 1015.90 1015.92 1015.89 1016.03 1016.15 1016.14 1016.11 1016.09 1016.14 1016.25 1016.25 1016.30 1016.32 1016.33 1016.19 1016.27 1016.44 1016.63 1016.86 1017.13 1017.38 1017.55 1017.62 1017.80
1019.63 1019.36 1018.98 1018.79 1018.68 1018.59 1018.53 1018.35 1018.26 1018.20 1018.20 1018.12 1017.90 1017.62 1017.33 1017.13 1017.12 1017.16 1017.03 1016.90 1016.99 1016.89 1016.86 1016.82 1016.72 1016.60 1016.62 1016.79 1016.78 1016.61 1016.64 1016.76 1016.73 1016.81 1016.99 1017.21 1017.39 1017.57 1017.86 1018.16 1018.22 1018.34 1018.46
1019.35 1018.86 1018.67 1018.72 1018.91 1019.07 1019.16 1019.20 1019.03 1019.00 1018.99 1019.02 1018.88 1018.83 1018.41 1017.97 1018.12 1018.26 1018.11 1017.96 1017.96 1017.84 1017.81 1017.73 1017.64 1017.79 1017.68 1017.58 1017.44 1017.19 1017.02 1016.97 1016.96 1017.02 1017.51 1017.79 1018.04 1018.25 1018.56 1018.77 1018.95 1019.08 1019.34
1019.10 1018.78 1018.79 1019.04 1019.36 1019.74 1019.78 1019.78 1019.83 1019.90 1019.95 1019.99 1020.06 1019.87 1019.35 1019.18 1019.46 1019.41 1019.23 1019.14 1018.98 1018.89 1018.81 1018.62 1018.63 1018.55 1018.32 1017.96 1017.77 1017.51 1017.21 1017.12 1017.21 1017.65 1018.18 1018.45 1018.72 1018.93 1019.15 1019.32 1019.56 1019.84 1020.01
1019.42 1019.54 1019.61 1019.88 1020.08 1020.30 1020.43 1020.44 1020.48 1020.57 1020.69 1020.74 1020.76 1020.57 1020.31 1020.30 1020.39 1020.38 1020.30 1020.23 1020.05 1019.77 1019.61 1019.40 1019.27 1019.16 1018.99 1018.83 1018.60 1018.31 1017.76 1017.56 1017.89 1018.31 1018.57 1018.87 1019.20 1019.44 1019.67 1019.93 1020.23 1020.47 1020.72
1020.07 1020.29 1020.47 1020.74 1020.88 1020.90 1021.13 1021.21 1021.41 1021.49 1021.59 1021.63 1021.61 1021.59 1021.52 1021.51 1021.53 1021.47 1021.34 1021.17 1020.95 1020.74 1020.53 1020.23 1020.14 1019.96 1019.58 1019.40 1019.14 1018.82 1019.14 1018.48 1018.49 1018.57 1018.90 1019.28 1019.59 1019.82 1020.06 1020.28 1020.56 1020.80 1021.12
1020.41 1020.81 1021.18 1021.39 1021.47 1021.70 1021.89 1022.13 1022.32 1022.37 1022.46 1022.63 1022.67 1022.71 1022.74 1022.68 1022.59 1022.51 1022.35 1022.11 1021.84 1021.71 1021.50 1021.28 1021.04 1020.80 1020.35 1020.02 1019.74 1019.42 1019.19 1019.14 1019.30 1019.47 1019.55 1019.92 1020.24 1020.51 1020.70 1020.95 1021.18 1021.41 1021.63
1021.14 1021.48 1021.79 1022.14 1022.39 1022.57 1022.76 1022.98 1023.18 1023.35 1023.43 1023.56 1023.70 1023.77 1023.78 1023.70 1023.60 1023.48 1023.27 1023.02 1022.87 1022.68 1022.58 1022.22 1021.90 1021.48 1021.19 1020.90 1020.64 1020.49 1020.33 1020.30 1020.35 1020.50 1020.68 1020.89 1021.18 1021.40 1021.67 1021.97 1022.14 1022.39 1022.52
1021.82 1022.14 1022.46 1022.79 1023.10 1023.26 1023.57 1023.86 1024.11 1024.28 1024.51 1024.59 1024.72 1024.78 1024.77 1024.73 1024.69 1024.55 1024.38 1024.12 1023.96 1023.79 1023.61 1023.42 1023.05 1022.52 1022.16 1022.05 1021.75 1021.42 1021.32 1021.28 1021.38 1021.45 1021.61 1021.93 1022.27 1022.58 1022.70 1022.86 1022.98 1023.21 1023.39
Thickness
5524 5522 5521 5523 5523 5525 5528 5525 5524 5525 5525 5529 5533 5539 5549 5556 5558 5561 5564 5567 5572 5573 5577 5582 5584 5587 5588 5590 5592 5593 5597 5600 5597 5588 5589 5583 5578 5576 5574 5569 5568 5565 5559
5512 5510 5510 5511 5517 5519 5520 5516 5514 5517 5518 5520 5523 5528 5535 5543 5549 5550 5552 5558 5561 5565 5569 5572 5570 5575 5577 5581 5580 5577 5578 5583 5587 5586 5580 5574 5570 5564 5563 5560 5559 5557 5562
5505 5501 5499 5500 5505 5510 5510 5509 5507 5509 5509 5510 5514 5517 5522 5526 5533 5533 5537 5543 5548 5551 5556 5556 5562 5566 5566 5566 5567 5567 5567 5571 5574 5573 5568 5564 5561 5553 5549 5550 5548 5544 5548
5495 5493 5491 5493 5498 5502 5500 5498 5497 5499 5499 5499 5503 5506 5511 5514 5517 5523 5527 5533 5539 5542 5545 5547 5549 5551 5552 5553 5553 5554 5554 5556 5557 5555 5555 5552 5550 5541 5541 5542 5541 5536 5538
5486 5486 5488 5491 5491 5489 5488 5486 5487 5485 5488 5489 5492 5496 5499 5503 5506 5512 5517 5521 5525 5529 5528 5531 5537 5540 5540 5539 5536 5538 5538 5538 5540 5544 5544 5541 5539 5532 5533 5535 5533 5528 5525
5482 5483 5486 5488 5482 5480 5479 5477 5476 5473 5477 5480 5488 5487 5492 5494 5497 5502 5505 5509 5512 5513 5514 5517 5520 5522 5522 5521 5519 5519 5521 5522 5526 5530 5529 5527 5520 5520 5523 5524 5521 5518 5514
5481 5482 5479 5478 5475 5471 5470 5469 5468 5468 5471 5474 5477 5481 5482 5483 5489 5494 5498 5501 5502 5502 5500 5500 5502 5501 5501 5504 5503 5504 5505 5507 5508 5510 5509 5507 5505 5506 5512 5513 5512 5512 5506
5481 5480 5475 5472 5467 5464 5464 5461 5462 5465 5468 5469 5471 5473 5475 5479 5483 5486 5489 5490 5490 5486 5484 5482 5482 5482 5485 5489 5490 5490 5489 5489 5491 5495 5496 5493 5494 5496 5501 5506 5502 5498 5494
5480 5476 5471 5468 5464 5460 5459 5458 5459 5460 5462 5462 5463 5464 5466 5468 5471 5474 5472 5469 5472 5470 5468 5466 5468 5473 5475 5475 5478 5476 5474 5475 5477 5480 5480 5481 5485 5490 5494 5498 5495 5493 5484
5476 5471 5467 5463 5460 5458 5456 5456 5457 5457 5458 5457 5458 5459 5460 5459 5460 5459 5461 5461 5460 5462 5466 5464 5462 5463 5464 5464 5465 5464 5464 5462 5463 5464 5467 5472 5476 5478 5482 5485 5487 5488 5484
5471 5467 5463 5460 5457 5454 5452 5451 5450 5451 5451 5450 5450 5450 5450 5449 5450 5452 5455 5457 5455 5457 5457 5457 5455 5454 5454 5457 5458 5459 5456 5454 5455 5458 5460 5463 5465 5468 5472 5475 5479 5482 5482
5466 5463 5459 5456 5453 5450 5448 5448 5447 5446 5445 5444 5444 5444 5445 5445 5446 5446 5447 5450 5451 5451 5451 5450 5448 5450 5449 5451 5451 5450 5451 5450 5448 5449 5451 5453 5455 5459 5463 5469 5474 5478 5483
5463 5459 5456 5454 5451 5449 5448 5447 5445 5444 5442 5441 5440 5439 5439 5440 5441 5441 5442 5444 5446 5447 5447 5447 5448 5447 5448 5448 5447 5448 5448 5447 5450 5451 5452 5454 5456 5460 5464 5468 5473 5477 5481
5460 5456 5453 5450 5448 5446 5445 5442 5441 5436 5435 5434 5432 5431 5435 5435 5436 5438 5440 5442 5444 5445 5446 5445 5445 5446 5446 5446 5445 5445 5446 5448 5450 5452 5455 5457 5459 5463 5467 5470 5474 5476 5479
5457 5455 5453 5449 5447 5444 5439 5436 5434 5431 5430 5430 5429 5429 5429 5433 5433 5432 5435 5438 5439 5439 5442 5442 5441 5442 5442 5440 5443 5446 5447 5450 5452 5454 5457 5458 5462 5465 5467 5470 5473 5475 5479
5456 5452 5451 5446 5441 5437 5432 5430 5430 5427 5427 5427 5429 5433 5431 5433 5431 5432 5433 5434 5436 5437 5438 5436 5435 5437 5437 5439 5443 5445 5448 5450 5452 5455 5457 5461 5464 5466 5469 5471 5474 5477 5480
5454 5452 5449 5445 5438 5433 5430 5425 5422 5427 5428 5428 5429 5430 5431 5429 5428 5428 5431 5432 5433 5435 5434 5431 5432 5434 5437 5440 5443 5445 5447 5450 5454 5457 5461 5464 5467 5469 5472 5474 5477 5479 5480
5457 5455 5451 5447 5442 5438 5434 5430 5427 5423 5422 5424 5427 5428 5430 5429 5426 5426 5428 5430 5431 5431 5430 5430 5432 5434 5438 5440 5442 5446 5450 5454 5458 5463 5465 5467 5469 5472 5475 5477 5479 5482 5484
5459 5457 5455 5452 5448 5444 5440 5438 5434 5430 5427 5424 5424 5424 5424 5424 5424 5423 5425 5427 5427 5428 5429 5431 5434 5438 5441 5443 5447 5453 5458 5461 5465 5468 5469 5470 5473 5476 5477 5479 5481 5483 5486
5466 5465 5462 5458 5452 5448 5444 5439 5434 5431 5428 5425 5422 5420 5424 5426 5423 5422 5423 5425 5427 5429 5431 5434 5437 5439 5443 5448 5453 5460 5465 5470 5474 5477 5475 5476 5479 5481 5482 5484 5485 5487 5489
5477 5472 5468 5464 5459 5452 5447 5442 5436 5432 5429 5426 5423 5422 5423 5427 5424 5424 5425 5426 5428 5430 5434 5438 5440 5445 5449 5455 5462 5470 5477 5481 5484 5483 5481 5483 5484 5486 5488 5490 5491 5492 5495
5478 5474 5471 5466 5461 5456 5451 5447 5442 5439 5436 5433 5431 5431 5430 5431 5429 5428 5429 5430 5432 5437 5440 5444 5449 5452 5456 5462 5468 5476 5485 5489 5489 5489 5489 5490 5491 5493 5494 5495 5495 5497 5499
5481 5475 5472 5467 5464 5462 5458 5454 5448 5444 5441 5438 5437 5437 5436 5434 5432 5432 5434 5436 5439 5444 5448 5453 5457 5460 5466 5471 5476 5483 5485 5493 5495 5497 5498 5498 5499 5501 5502 5503 5503 5504 5505
5489 5483 5479 5475 5472 5468 5463 5458 5454 5450 5447 5444 5443 5441 5440 5439 5438 5438 5440 5442 5445 5449 5454 5458 5463 5467 5474 5479 5484 5490 5496 5498 5498 5499 5501 5502 5503 5503 5505 5506 5507 5507 5508
5494 5490 5486 5480 5476 5472 5468 5465 5462 5457 5454 5451 5448 5446 5445 5445 5445 5446 5448 5451 5454 5457 5460 5465 5470 5475 5480 5485 5490 5494 5498 5500 5500 5500 5501 5501 5502 5503 5503 5503 5503 5503 5504
5500 5496 5491 5487 5483 5480 5476 5471 5466 5463 5459 5457 5454 5452 5451 5450 5451 5453 5455 5458 5461 5464 5467 5471 5476 5481 5485 5488 5493 5497 5499 5501 5501 5502 5501 5501 5501 5501 5502 5502 5502 5501 5501